Torna al catalogo

DELTA 1 DEB

AttivoSSO
NORAD 37654·DEBRIS·🇺🇸 United States

Lanciato Mar 5, 1978 da Vandenberg Space Force Base

Loading…

Prossimi Passaggi (prossime 24 ore)

TLE

AggiornatoSource: Space-Track

Epoca: Sep 13, 2026, 04:02 UTC

1 37654U 78026JR  26256.16848471  .00000178  00000-0  74589-4 0  9991
2 37654  98.6994 233.9860 0109965  69.7988 351.4741 14.34287078220980

Traccia DELTA 1 DEB in tempo reale con AllMySat

Download on the App Store